[[{"header":{"parameterUnit":"m.s-1","parameterCategory":1,"la1":30.2991,"la2":30.254,"lo1":-89.0895,"lo2":-89.0444,"dy":0.0017,"dx":0.0017,"nx":28,"ny":28,"refTime":"2024-03-30T09:00:00:Z","depth":0,"parameterNumber":2,"parameterNumberName":"U-component_of_WINDS"},"data":[0,0,0,0,0,0,0,0,0,0,0,0,0,0,0,0,0,0,0,0,0,0,0,0,0,0,0,0,0,0,0,0,0,0,0,0,0,0,0,0,0,0,0,0,0,0,0,0,0,0,0,0,0,0,0,0,0,0,0.4101,0.4102,0,0.4206,0.4207,0.4208,0.4229,0.4228,0.4227,0.4226,0.4336,0.4339,0.4343,0,0,0,0,0,0,0,0,0,0,0,0,0,0.3921,0.3924,0.4101,0.4103,0.4104,0.4206,0.4207,0.4209,0.4229,0.4228,0.4227,0.4226,0.4334,0.4339,0.4343,0,0,0,0,0,0,0,0,0,0,0,0,0,0.401,0.3925,0.4101,0.4126,0.4129,0.4206,0.4207,0.4209,0.4229,0.4228,0.4226,0.4225,0.4333,0.4338,0.4344,0.4403,0,0,0.4361,0.4363,0,0,0,0,0,0,0,0,0.4005,0.4016,0.4121,0.4124,0.4128,0.4203,0.4184,0.4274,0.4229,0.4191,0.4226,0.4225,0.4293,0.4301,0.4324,0.4408,0.4413,0.4361,0.4365,0.4367,0.4368,0,0,0,0,0,0,0,0.3998,0.4012,0.4143,0.4123,0.4127,0.4133,0.4144,0.4201,0.4248,0.4194,0.4196,0.4208,0.4294,0.4318,0.4327,0.4415,0.4361,0.4366,0.4369,0.4372,0.4554,0.4555,0,0,0,0,0,0,0.3988,0.4007,0.4139,0.4146,0.4062,0.4137,0.415,0.418,0.4247,0.4256,0.4209,0.4209,0.431,0.432,0.433,0.4405,0.4367,0.4372,0.4375,0.4552,0.4554,0.4556,0,0,0,0,0,0,0.3984,0.3999,0.4135,0.4077,0.4095,0.4141,0.4176,0.4183,0.4207,0.4258,0.4267,0.4225,0.4309,0.4323,0.4385,0.4409,0.4375,0.438,0.455,0.4553,0.4555,0.4554,0,0,0,0,0,0,0.3978,0.3998,0.402,0.4077,0.4098,0.4187,0.4177,0.4186,0.4216,0.4217,0.4275,0.4284,0.4309,0.4377,0.439,0.4416,0.4384,0.4549,0.4552,0.4554,0.4552,0.4556,0.4559,0,0,0,0,0,0.3972,0.4016,0.4021,0.4037,0.4127,0.4188,0.42,0.4228,0.4218,0.4242,0.4274,0.4282,0.4404,0.4383,0.4399,0.4426,0.4547,0.4551,0.4554,0.455,0.4555,0.4559,0,0,0,0,0,0,0.3961,0.4024,0.403,0.4094,0.4136,0.4192,0.4222,0.4232,0.4277,0.4276,0.4309,0.4322,0.4382,0.4411,0.4386,0.4488,0.4475,0.4482,0.4467,0.4472,0.4475,0.4468,0.4389,0,0,0,0,0,0.3966,0.401,0.4063,0.4114,0.4135,0.4175,0.4203,0.422,0.4265,0.4283,0.432,0.4364,0.4413,0.4444,0.4491,0.4556,0.457,0.4583,0.4586,0.4589,0.4595,0.4632,0.4639,0.4567,0.4567,0.4567,0,0,0.3977,0.4017,0.4043,0.4113,0.4148,0.4194,0.419,0.4238,0.4273,0.4291,0.4352,0.4381,0.4432,0.4496,0.4526,0.4521,0.4618,0.4594,0.4595,0.46,0.4636,0.4643,0.4649,0.4569,0.4569,0.4568,0,0,0.402,0.4055,0.4101,0.4136,0.4188,0.4214,0.4225,0.428,0.43,0.4361,0.4376,0.4418,0.45,0.4536,0.4565,0.4623,0.4632,0.4637,0.4656,0.4692,0.4698,0.4703,0.4724,0.4731,0.4642,0.4642,0.4642,0,0.4028,0.4097,0.4124,0.4173,0.4204,0.4221,0.4269,0.4301,0.4366,0.4388,0.4381,0.4485,0.452,0.4594,0.4608,0.463,0.4645,0.4631,0.4695,0.47,0.4705,0.4726,0.4734,0.4643,0.4643,0.4643,0.4643,0,0.4104,0.4151,0.4183,0.4245,0.4279,0.4327,0.4363,0.4394,0.4409,0.4436,0.4499,0.4542,0.4599,0.4617,0.4632,0.4693,0.4689,0.4688,0.4676,0.4712,0.4732,0.474,0.4643,0.4643,0.4643,0.4643,0,0,0.4143,0.422,0.4231,0.4259,0.4318,0.4356,0.4405,0.446,0.4487,0.4531,0.4574,0.4643,0.4643,0.4676,0.4695,0.4726,0.477,0.4722,0.4724,0.473,0.484,0.4841,0.485,0.4776,0.4778,0.4779,0.4836,0,0.4194,0.4282,0.4308,0.4382,0.4427,0.4444,0.4487,0.4528,0.4555,0.4598,0.4628,0.4677,0.4672,0.4693,0.4724,0.4758,0.4793,0.4754,0.4817,0.4819,0.4804,0.486,0.4861,0.4913,0.4844,0.4846,0.4847,0,0.4265,0.431,0.4388,0.4442,0.4462,0.45,0.4553,0.4593,0.464,0.4658,0.4695,0.4711,0.4764,0.4749,0.4822,0.4795,0.4823,0.4843,0.4846,0.4853,0.4835,0.487,0.493,0.4938,0.4859,0.4858,0.4857,0,0.4287,0.4367,0.4425,0.4449,0.4512,0.4539,0.4567,0.4613,0.4644,0.469,0.4711,0.4763,0.4792,0.4832,0.4862,0.4848,0.4934,0.4921,0.495,0.495,0.4968,0.4967,0.5034,0.4984,0.4984,0.4984,0.4984,0,0.4341,0.4389,0.4436,0.4471,0.4525,0.4555,0.4608,0.4636,0.4677,0.4719,0.4737,0.4777,0.4814,0.4858,0.4882,0.494,0.4953,0.4969,0.4975,0.4968,0.4966,0.4987,0.4984,0.4986,0.4986,0.4985,0.4985,0,0.4375,0.4408,0.4472,0.4527,0.4542,0.4579,0.4627,0.4662,0.469,0.4743,0.4757,0.48,0.4854,0.4888,0.4955,0.4972,0.5035,0.504,0.5019,0.5022,0.505,0.5047,0.5134,0.5147,0.5088,0.5088,0.5089,0,0.4408,0.4444,0.4504,0.4533,0.4561,0.4607,0.464,0.4671,0.4704,0.4761,0.479,0.4844,0.4889,0.4973,0.5011,0.5063,0.507,0.5096,0.5078,0.5069,0.5071,0.5069,0.5073,0.51,0.51,0.5101,0.5101,0,0.4462,0.4477,0.4522,0.4574,0.4612,0.4654,0.4696,0.4719,0.4758,0.4794,0.4848,0.4883,0.4952,0.5006,0.5062,0.5091,0.5103,0.5106,0.5116,0.5109,0.5096,0.5104,0.5028,0.5104,0.5104,0.5104,0.5104,0.5104,0.4497,0.4531,0.4578,0.4628,0.4663,0.4702,0.4738,0.477,0.4816,0.4874,0.489,0.4947,0.4995,0.507,0.5101,0.5147,0.5143,0.5157,0.5161,0.5164,0.5165,0.5088,0.5157,0.5157,0.5157,0.5157,0.5157,0,0.4553,0.4584,0.463,0.4689,0.4728,0.4735,0.4783,0.4815,0.4865,0.4908,0.4952,0.5015,0.5067,0.5109,0.5164,0.5192,0.5199,0.5205,0.5204,0.5211,0.5164,0.5151,0.5199,0.5199,0.5199,0.5199,0.5199,0.5199,0.4587,0.4645,0.4665,0.4741,0.4772,0.4828,0.4854,0.4891,0.4925,0.4994,0.5038,0.5065,0.5108,0.5166,0.5214,0.5225,0.5245,0.525,0.5263,0.5219,0.5214,0.5209,0.5197,0.5254,0.5254,0.5306,0.5306,0.5306]},{"header":{"parameterUnit":"m.s-1","parameterCategory":1,"la1":30.2991,"la2":30.254,"lo1":-89.0895,"lo2":-89.0444,"dy":0.0017,"dx":0.0017,"nx":28,"ny":28,"refTime":"2024-03-30T09:00:00:Z","depth":0,"parameterNumber":3,"parameterNumberName":"V-component_of_WINDS"},"data":[0,0,0,0,0,0,0,0,0,0,0,0,0,0,0,0,0,0,0,0,0,0,0,0,0,0,0,0,0,0,0,0,0,0,0,0,0,0,0,0,0,0,0,0,0,0,0,0,0,0,0,0,0,0,0,0,0,0,4.9871,4.9872,0,4.9993,4.9995,4.9996,4.9974,4.9972,4.9969,4.9967,5.0086,5.0091,5.0096,0,0,0,0,0,0,0,0,0,0,0,0,0,4.9613,4.9618,4.9871,4.9872,4.9874,4.9993,4.9995,4.9996,4.9974,4.9971,4.9969,4.9966,5.0084,5.009,5.0096,0,0,0,0,0,0,0,0,0,0,0,0,0,4.9729,4.962,4.9871,4.9877,4.9879,4.9993,4.9995,4.9997,4.9975,4.9971,4.9968,4.9965,5.0082,5.009,5.0097,5.021,0,0,5.0121,5.0124,0,0,0,0,0,0,0,0,4.9722,4.9738,4.9875,4.9877,4.9879,4.9965,4.9947,5.0068,4.9975,4.9938,4.9967,4.9964,5.0048,5.0058,5.0088,5.0215,5.022,5.0122,5.0126,5.013,5.0132,0,0,0,0,0,0,0,4.9714,4.9733,4.9919,4.9877,4.988,4.9873,4.9885,4.997,5.0009,4.9941,4.994,4.9955,5.0048,5.0081,5.0091,5.0222,5.0121,5.0128,5.0133,5.0136,5.0449,5.0452,0,0,0,0,0,0,4.9705,4.9726,4.9915,4.9923,4.9792,4.988,4.9894,4.9941,5.0008,5.0016,4.9958,4.9954,5.0069,5.0082,5.0095,5.0232,5.013,5.0137,5.0141,5.0445,5.0449,5.0453,0,0,0,0,0,0,4.97,4.9722,4.991,4.9824,4.9848,4.9888,4.994,4.9945,4.9977,5.0021,5.0027,4.9984,5.0067,5.0084,5.0182,5.0236,5.014,5.0147,5.0441,5.0446,5.0451,5.0507,0,0,0,0,0,0,4.9692,4.972,4.9765,4.9826,4.9853,4.9998,4.9943,4.995,4.9991,4.9987,5.0047,5.0054,5.0066,5.0171,5.019,5.0245,5.0153,5.0436,5.0443,5.045,5.0501,5.0514,5.0525,0,0,0,0,0,4.9683,4.9774,4.9767,4.979,4.9909,5.0001,5.0016,5.003,4.9996,5.004,5.0068,5.0052,5.0227,5.0181,5.0202,5.0261,5.0433,5.0441,5.0449,5.0495,5.0512,5.0525,0,0,0,0,0,0,4.9715,4.9782,4.9775,4.9888,4.994,4.9997,5.0053,5.0046,5.0106,5.0099,5.0111,5.0125,5.0225,5.0252,5.02,5.0373,5.0325,5.0338,5.0353,5.0368,5.038,5.0372,5.016,0,0,0,0,0,4.9736,4.9807,4.986,4.9955,4.9981,5.0013,5.0053,5.006,5.0112,5.0133,5.0168,5.0218,5.0284,5.0327,5.039,5.0504,5.0517,5.0555,5.0567,5.0577,5.0588,5.0652,5.067,5.048,5.048,5.048,0,0,4.9779,4.9824,4.9867,4.9963,5.0003,5.0075,5.0031,5.0108,5.0161,5.0143,5.024,5.0267,5.0323,5.0431,5.0479,5.0456,5.0643,5.0587,5.0595,5.0601,5.0662,5.068,5.0696,5.0486,5.0485,5.0484,0,0,4.9894,4.9935,5.002,5.0062,5.0124,5.0145,5.0165,5.0224,5.0243,5.034,5.0329,5.039,5.0504,5.0545,5.0581,5.0713,5.0701,5.0733,5.0797,5.0859,5.0874,5.0888,5.0936,5.0954,5.0744,5.0744,5.0744,0,4.9939,5.0049,5.0063,5.0143,5.0186,5.0175,5.026,5.0299,5.0378,5.0407,5.038,5.0524,5.056,5.0678,5.0711,5.0739,5.0763,5.0727,5.0871,5.0885,5.0897,5.0944,5.0962,5.0747,5.0747,5.0747,5.0746,0,5.0102,5.0178,5.0238,5.0319,5.0367,5.0449,5.0475,5.0522,5.0524,5.0547,5.0646,5.069,5.0763,5.0791,5.0792,5.0909,5.0893,5.0869,5.082,5.0919,5.0963,5.0981,5.0753,5.0751,5.075,5.0749,0,0,5.0241,5.0329,5.0351,5.0389,5.0457,5.0516,5.0596,5.067,5.0711,5.0765,5.0834,5.0931,5.091,5.095,5.0956,5.101,5.1114,5.0979,5.098,5.1004,5.1247,5.1267,5.1287,5.1105,5.1109,5.1112,5.1243,0,5.0364,5.0511,5.0527,5.0657,5.0728,5.0719,5.0789,5.0838,5.0862,5.0924,5.0949,5.1019,5.0984,5.1009,5.1062,5.109,5.1163,5.108,5.1169,5.1172,5.1158,5.131,5.133,5.1452,5.126,5.1263,5.1265,0,5.0528,5.0591,5.0729,5.079,5.082,5.0884,5.0954,5.1013,5.1068,5.1081,5.1128,5.1127,5.1209,5.1157,5.127,5.1214,5.125,5.127,5.1274,5.1285,5.1226,5.1326,5.1491,5.1511,5.1292,5.129,5.1288,0,5.0618,5.0737,5.0836,5.0867,5.094,5.0985,5.1017,5.1069,5.1113,5.1172,5.1201,5.1268,5.1306,5.1357,5.1374,5.1334,5.1488,5.1436,5.1501,5.1501,5.1535,5.1533,5.1711,5.1555,5.1555,5.1555,5.1554,0,5.0756,5.0841,5.0878,5.0939,5.1034,5.105,5.1143,5.1172,5.1219,5.1284,5.1279,5.134,5.1357,5.1421,5.1434,5.1527,5.1543,5.1556,5.1559,5.1558,5.1557,5.1583,5.1576,5.156,5.1559,5.1558,5.1557,0,5.0873,5.0901,5.1009,5.107,5.1087,5.1155,5.1206,5.1264,5.1287,5.1369,5.139,5.1425,5.15,5.1522,5.161,5.1619,5.1729,5.1722,5.1712,5.1712,5.1777,5.1771,5.198,5.2008,5.1832,5.1834,5.1835,0,5.096,5.1026,5.1095,5.114,5.1175,5.1246,5.1292,5.131,5.1358,5.1426,5.1476,5.155,5.1611,5.1731,5.1763,5.1831,5.1828,5.1896,5.1838,5.1836,5.1831,5.1828,5.1836,5.1908,5.191,5.1911,5.1912,0,5.1112,5.1123,5.1191,5.1264,5.1319,5.1377,5.1432,5.1468,5.1494,5.1547,5.1626,5.1673,5.1765,5.184,5.1909,5.1939,5.1931,5.193,5.1949,5.195,5.1942,5.1949,5.1744,5.1926,5.1924,5.1924,5.1923,5.1922,5.1218,5.1278,5.1336,5.1412,5.1456,5.1508,5.1567,5.1598,5.1664,5.1743,5.1749,5.1834,5.1887,5.198,5.2014,5.2079,5.2059,5.2086,5.2093,5.21,5.2107,5.193,5.2092,5.2091,5.2091,5.2091,5.209,0,5.1372,5.141,5.1479,5.1558,5.1618,5.1606,5.1667,5.1717,5.1793,5.1845,5.1906,5.1996,5.2068,5.2106,5.2178,5.2223,5.2221,5.2241,5.2239,5.2247,5.212,5.2097,5.2242,5.2242,5.2242,5.2242,5.2242,5.2242,5.1459,5.1559,5.1577,5.1699,5.1735,5.1821,5.1857,5.1905,5.1947,5.2049,5.211,5.2135,5.2182,5.2257,5.2322,5.2332,5.2359,5.2382,5.2389,5.2271,5.2255,5.224,5.222,5.2388,5.2388,5.2511,5.2512,5.2513]}]]